Location: Haliburton Scout Reserve
(45.0900°N, 78.3200°W)
Time: 04:53:07
(UTC-05:00)

ISS - Visible Passes

Search period start: 01 December 2021 00:00
Search period end: 11 December 2021 00:00
Orbit: 417 x 423 km, 51.6° (Epoch: 01 December)

Date Brightness Start Highest point End Pass type
(mag) Time Alt. Az. Time Alt. Az. Time Alt. Az.
01 Dec -2.4 17:21:01 10° NW 17:23:58 26° N 17:26:23 13° ENE visible
01 Dec -1.6 18:57:54 10° NW 18:59:22 23° NW 18:59:22 23° NW visible
02 Dec -3.2 18:10:44 10° NW 18:14:00 41° NNE 18:14:13 41° NNE visible
03 Dec -2.8 17:23:33 10° NW 17:26:41 33° NNE 17:29:10 14° ENE visible
03 Dec -1.8 19:00:20 10° WNW 19:02:10 29° WNW 19:02:10 29° WNW visible
04 Dec -3.9 18:13:06 10° WNW 18:16:31 83° NNE 18:17:15 52° ESE visible
05 Dec -3.6 17:25:54 10° NW 17:29:16 57° NNE 17:32:31 11° ESE visible
05 Dec -1.5 19:03:03 10° W 19:05:32 24° SW 19:05:32 24° SW visible
06 Dec -2.4 18:15:36 10° WNW 18:18:47 39° SW 18:21:04 17° SSE visible
07 Dec -3.3 17:28:15 10° WNW 17:31:37 63° SW 17:34:58 10° SE visible
08 Dec -0.7 18:18:44 10° W 18:20:49 15° SW 18:22:54 10° S visible
09 Dec -1.2 17:30:55 10° W 17:33:44 24° SW 17:36:32 10° SSE visible
